Flag for Spain Weather past 2 weeks in Santander, Spain

57 °F

Passing clouds.

Feels Like: 53 °F
Forecast: 57 / 59 °F
Wind: 20 mph from Northwest

Location: Santander / Parayas

Current Time: Nov 26, 2015 at 7:19:47 AM

Latest Report: Nov 26, 2015 at 6:30 AM

Visibility: 4 mi

Pressure: 30.27 "Hg

Humidity: 77%

Dew point: 50 °F

Location of SantanderLocation

Historic Weather in Santander — Graph


Santander temperature yesterday

Maximum temperature yesterday: 57 °F (at 3:00 PM)
Minimum temperature yesterday: 54 °F (at 5:30 AM)
Average temperature yesterday: 56 °F

Past Weeks' High & Low Weather Summary

High72 °F (Nov 17, 2:00 PM)100% (Nov 13, 4:30 PM)30.57 "Hg (Nov 13, 4:30 PM)
Low39 °F (Nov 22, 11:00 PM)40% (Nov 20, 1:30 PM)29.92 "Hg (Nov 22, 1:00 PM)
Average56 °F80%30.28 "Hg
* Reported Nov 11 6:00 AM — Nov 26 6:00 AM, Santander, Weather by CustomWeather, © 2015

Note: Actual official high and low records may vary slightly from our data, if they occured in-between our weather recording intervals... More about our weather records


Santander weather history for previous 24 hours

Time TempWeatherWind HumidityBarometerVisibility
6:00 AM
Thu, Nov 26
57 °FPassing clouds.22 mph77%30.27 "Hg4 mi
5:30 AM57 °FPartly cloudy.23 mph77%30.27 "HgN/A
11:00 PM
Wed, Nov 25
57 °FPassing clouds.28 mph77%30.30 "HgN/A
10:30 PM55 °FPassing clouds.24 mph82%30.30 "HgN/A
10:00 PM57 °FPartly cloudy.22 mph82%30.33 "Hg6 mi
9:30 PM57 °FPartly cloudy.22 mph82%30.33 "Hg6 mi
9:00 PM57 °FPartly cloudy.25 mph82%30.33 "Hg6 mi
8:30 PM57 °FPartly cloudy.26 mph82%30.30 "Hg6 mi
8:00 PM57 °FPassing clouds.28 mph77%30.30 "HgN/A
7:30 PM57 °FPassing clouds.24 mph77%30.30 "HgN/A
7:00 PM57 °FPartly cloudy.26 mph77%30.27 "HgN/A
6:30 PM57 °FPassing clouds.25 mph77%30.27 "HgN/A
6:00 PM57 °FPassing clouds.28 mph82%30.27 "HgN/A
5:30 PM57 °FPartly sunny.31 mph77%30.27 "HgN/A
5:00 PM57 °FBroken clouds.26 mph82%30.27 "HgN/A
4:30 PM57 °FPartly sunny.28 mph88%30.27 "HgN/A
4:00 PM57 °FBroken clouds.26 mph88%30.27 "HgN/A
3:30 PM57 °FPartly sunny.29 mph88%30.27 "HgN/A
3:00 PM57 °FLight rain. Partly sunny.28 mph88%30.27 "Hg6 mi
2:45 PM55 °FLight rain. Broken clouds.26 mph100%30.27 "Hg6 mi
2:30 PM55 °FLight rain. Fog.29 mph94%30.27 "Hg2 mi
2:00 PM55 °FRain. Fog.26 mph94%30.27 "Hg2 mi
1:30 PM55 °FRain. Fog.23 mph94%30.27 "Hg1 mi
1:00 PM55 °FLight rain. Fog.25 mph94%30.27 "Hg1 mi
12:30 PM55 °FLight rain. Fog.26 mph94%30.27 "Hg1 mi
12:00 PM55 °FLight rain. Fog.26 mph94%30.30 "Hg2 mi
11:30 AM55 °FLight rain. Fog.28 mph94%30.27 "Hg2 mi
11:00 AM54 °FRain. Fog.25 mph100%30.27 "Hg1 mi
10:48 AM54 °FRain. Fog.25 mph100%30.27 "Hg1 mi
10:30 AM54 °FRain. Fog.28 mph94%30.27 "Hg1 mi
10:00 AM54 °FLight rain. Fog.24 mph94%30.27 "Hg2 mi
9:30 AM54 °FLight rain. Fog.23 mph94%30.27 "Hg2 mi
9:01 AM54 °FRain. Fog.25 mph94%30.27 "Hg2 mi
8:30 AM54 °FDrizzle. Fog.21 mph94%30.24 "Hg2 mi
8:04 AM55 °FLight rain. Fog.28 mph88%30.24 "Hg2 mi
7:00 AM55 °FPartly cloudy.25 mph88%30.24 "Hg4 mi
Weather by CustomWeather, © 2015

See weather overviewHow to use our weather pages